Theta_e
325 329 331 333 342 342 345 351 351 353 350 348 344 341 339 340 340 342 343 343 344 342 342 340 339 338 335 333 332 331 329 324 327 327 326 328 330 330 330 331 329 330 332
322 326 331 336 341 343 345 347 348 350 349 347 346 341 339 337 339 340 343 343 342 341 341 340 338 337 334 332 331 330 326 325 328 322 322 318 322 327 330 330 330 333 333
319 321 325 338 338 339 341 342 346 348 348 345 345 348 343 344 340 341 340 342 341 341 340 338 338 336 334 331 331 330 328 325 328 327 322 316 314 319 326 328 330 331 333
321 322 325 335 336 337 339 342 345 345 346 347 344 342 336 335 338 337 339 341 342 340 339 339 335 334 334 332 332 332 329 327 323 326 328 326 323 317 314 323 326 330 329
322 323 328 334 335 337 338 342 343 342 345 346 343 341 341 340 341 338 340 341 340 340 338 337 336 335 335 333 332 331 329 329 326 326 324 324 324 320 316 314 321 326 328
321 324 333 334 334 336 337 340 340 341 342 344 345 343 341 340 338 338 337 338 340 338 338 336 336 336 335 333 334 332 331 329 329 328 329 326 321 317 317 318 321 320 324
321 329 330 331 332 334 336 338 338 338 340 342 341 342 342 342 340 339 337 338 337 335 337 336 336 335 335 335 333 332 332 330 328 327 328 329 327 326 325 322 320 320 325
326 329 330 330 331 334 335 335 336 336 337 338 339 341 342 339 340 340 338 337 337 336 337 335 335 335 335 333 334 333 330 330 330 328 329 329 328 329 325 323 321 319 320
328 328 329 330 332 333 335 335 335 335 336 337 339 340 340 341 339 340 340 338 338 335 336 335 336 336 335 335 334 330 330 331 329 330 329 329 331 329 325 322 323 320 316
327 327 328 331 332 334 335 336 336 335 336 337 337 335 338 338 339 340 337 338 337 333 335 336 335 335 334 334 333 332 334 330 328 328 329 329 330 329 328 328 327 326 321
326 327 328 331 332 333 333 335 334 333 334 335 338 337 337 334 338 336 337 337 337 335 333 333 335 334 333 333 332 333 330 328 327 328 326 327 327 327 329 328 327 325 324
326 327 329 330 330 331 332 332 333 331 333 334 335 337 333 334 336 336 336 337 334 333 333 332 332 332 332 335 332 330 332 330 328 327 326 326 329 327 328 327 326 325 325
325 326 327 328 329 330 330 330 330 331 331 332 334 333 334 336 336 336 336 335 334 332 331 331 330 331 333 332 331 331 330 330 329 328 327 326 327 327 326 327 326 325 324
325 326 326 328 329 330 328 328 328 330 331 330 333 334 335 334 335 337 336 337 332 330 330 332 331 332 331 330 331 330 330 331 330 329 330 326 324 325 326 326 325 324 322
324 326 326 328 329 328 327 327 328 329 330 331 332 334 333 335 335 335 335 336 330 330 330 332 331 331 329 328 331 331 330 331 330 329 330 326 323 320 324 326 325 323 321
323 325 327 328 329 327 325 326 328 328 329 332 332 333 332 332 334 334 335 336 334 333 332 332 330 329 326 308 311 321 331 331 330 329 326 324 320 316 314 317 318 321 321
324 325 326 328 329 326 327 326 328 328 327 330 331 331 332 331 332 333 333 333 333 333 331 331 330 327 325 307 307 311 332 330 330 329 329 328 325 323 321 311 312 312 311
325 326 327 330 330 327 327 328 328 326 326 329 330 330 330 330 332 330 333 334 334 333 332 331 329 327 322 309 301 305 332 331 331 330 330 328 328 323 324 323 322 322 322
328 328 330 331 330 327 327 327 326 325 326 326 330 330 331 331 331 332 334 335 333 331 329 330 329 326 323 301 302 317 331 330 329 330 330 328 322 306 308 322 320 320 319
330 329 331 332 329 328 328 327 325 324 325 326 330 331 331 331 333 333 334 336 335 331 331 328 328 318 324 303 302 313 329 327 325 327 323 310 316 304 307 322 321 318 319
330 332 332 331 330 330 329 326 325 323 327 328 331 332 333 333 335 335 335 335 333 330 327 326 326 328 324 319 303 303 329 328 326 324 322 316 302 305 306 312 322 319 322
329 331 331 331 330 329 328 326 326 326 328 328 330 333 335 331 335 336 336 335 333 330 328 326 325 327 327 313 305 304 311 317 326 323 324 311 300 304 307 314 302 304 314
330 331 331 332 330 329 328 327 328 327 327 327 331 333 333 332 334 335 333 333 334 330 328 328 326 326 326 323 304 304 305 310 325 327 308 298 300 300 303 302 302 305 325
328 332 331 331 328 328 328 330 328 327 327 328 332 333 332 332 332 333 334 332 331 330 329 328 326 326 325 325 325 324 320 311 314 308 312 309 309 310 312 311 311 328 327
328 331 331 332 329 328 328 329 328 327 327 329 330 332 332 332 332 332 329 332 320 323 330 330 329 326 325 326 319 321 327 325 319 320 321 322 320 320 320 322 323 324 326
328 329 334 333 331 328 327 328 328 327 329 329 328 329 330 331 330 327 323 297 301 300 298 302 323 329 313 305 305 306 306 304 304 323 323 324 321 320 320 320 321 324 320
Wind_Speed
17 8 7 8 6 4 3 5 7 8 9 8 8 5 5 4 4 4 6 6 4 4 5 4 3 3 4 5 4 4 5 2 3 2 2 3 5 5 6 5 6 6 7
17 12 8 4 6 6 6 6 6 7 8 7 6 6 5 7 5 5 6 6 5 5 4 3 3 4 3 4 5 6 3 4 4 3 2 3 3 5 7 5 4 5 2
17 18 14 10 9 8 8 7 7 10 8 8 5 4 4 2 4 3 3 5 3 2 3 2 3 4 4 5 5 5 6 4 4 7 4 3 4 4 4 5 4 6 3
18 19 16 13 11 10 9 9 9 10 7 8 6 6 4 3 3 4 4 4 5 5 4 3 3 5 4 4 4 5 6 4 4 3 8 8 2 3 3 1 2 4 5
12 13 8 15 12 12 11 10 10 10 7 6 7 4 4 4 3 2 8 4 3 2 2 4 4 3 3 4 5 4 5 4 4 5 3 6 0 5 4 3 3 2 3
14 13 18 15 13 12 12 11 12 9 8 5 7 5 6 4 3 2 4 2 1 1 4 3 4 4 3 4 3 4 5 5 5 4 4 4 4 5 5 4 6 5 2
9 18 17 14 13 14 14 12 12 11 9 6 6 4 4 2 2 2 1 2 2 3 3 3 4 3 4 3 4 4 3 4 3 5 4 4 3 1 2 3 5 5 2
15 17 15 14 14 15 15 14 13 12 10 8 7 5 6 4 2 3 2 3 3 3 4 4 3 4 4 4 4 3 2 3 3 5 6 3 3 4 4 3 3 6 2
12 14 15 14 15 15 14 14 13 11 10 9 6 5 5 5 4 4 3 3 4 4 4 5 3 2 3 5 5 2 3 4 2 1 2 1 3 4 3 4 6 6 6
14 14 15 15 14 14 12 13 12 11 10 9 7 6 6 5 4 3 4 2 4 3 7 4 3 3 3 3 4 3 4 4 1 2 2 3 2 3 6 6 8 3 7
15 15 15 15 15 14 13 12 11 11 9 8 6 6 5 5 5 3 3 3 1 6 5 5 4 4 4 3 4 4 4 4 2 1 2 4 2 3 7 5 5 5 7
16 16 16 16 15 14 13 11 10 11 9 8 11 8 5 7 5 4 5 4 3 5 4 6 5 6 5 3 1 4 4 5 4 3 1 2 2 6 7 5 6 7 8
17 17 17 15 14 13 12 12 10 10 10 9 11 6 7 5 5 5 5 6 5 4 4 4 3 9 5 5 4 4 4 2 3 2 2 7 6 5 6 7 8 8 8
17 17 16 15 14 14 13 12 11 10 9 8 12 7 6 6 5 5 4 3 7 5 5 5 8 6 6 3 3 3 1 2 4 4 5 7 6 5 6 9 9 9 9
17 16 15 15 14 13 12 12 11 10 8 10 10 9 7 5 5 5 4 3 6 6 8 8 9 4 4 4 3 3 2 4 6 5 7 6 7 9 10 8 9 12 10
17 17 16 15 15 13 12 11 10 10 8 14 11 8 7 7 6 6 5 3 3 6 7 9 7 3 6 8 9 7 3 5 7 7 8 6 8 9 13 13 12 11 14
16 16 15 15 13 13 11 11 11 10 8 9 11 9 10 8 8 7 7 7 6 7 7 7 6 8 6 8 9 9 3 5 6 7 8 7 7 9 11 15 16 15 15
15 15 13 13 13 12 12 10 11 10 10 9 12 9 10 8 5 7 7 7 6 6 6 5 9 8 4 7 9 9 5 6 6 6 9 9 9 9 11 12 14 13 12
13 12 13 14 11 12 13 12 12 11 11 10 12 10 10 9 6 8 8 7 6 4 6 6 10 8 4 8 8 7 5 8 8 7 9 10 11 12 12 14 14 13 12
14 13 15 14 13 11 12 11 12 11 10 11 11 13 10 11 7 9 8 6 5 5 5 8 7 8 5 5 6 6 5 8 7 8 10 12 11 13 12 13 15 14 13
16 14 15 13 13 12 12 11 12 10 10 11 11 14 10 9 9 9 6 6 7 8 8 8 5 6 5 3 5 8 6 6 7 7 7 6 10 12 11 11 12 13 15
5 16 14 13 13 13 12 11 11 10 11 11 10 13 11 9 9 10 7 6 8 8 8 9 5 6 5 6 4 9 8 5 8 9 7 5 8 10 13 9 14 14 12
9 14 14 15 13 14 13 11 11 10 11 11 10 12 9 12 8 10 9 6 5 7 7 6 7 6 6 5 6 7 9 5 8 7 8 9 8 10 10 17 15 12 8
6 8 16 16 14 14 14 11 13 12 12 11 11 12 9 12 9 6 8 7 7 7 7 7 7 7 7 6 5 5 5 10 10 11 6 5 6 7 10 10 11 7 8
6 8 14 15 15 14 14 13 14 12 11 11 11 11 8 10 9 6 2 6 5 2 9 10 9 8 8 8 10 9 7 7 9 8 5 4 5 7 8 7 8 6 9
7 7 8 15 16 16 14 14 15 13 12 11 10 10 9 7 8 6 5 13 8 14 13 9 9 9 13 17 14 10 15 14 17 7 6 7 8 8 7 8 8 6 9
Wind_Direction
274 219 232 264 109 114 117 110 127 132 147 153 163 158 175 169 226 181 188 186 168 208 187 218 200 201 224 218 207 224 241 265 227 167 247 247 252 259 259 217 207 209 205
287 291 229 225 141 131 120 127 143 152 148 143 165 172 174 189 195 186 182 169 178 206 207 204 204 215 222 226 205 204 198 208 165 173 226 209 243 243 247 228 186 166 204
277 281 277 131 135 133 136 150 161 141 148 139 179 178 173 161 168 150 153 168 175 151 174 226 187 202 205 221 219 205 202 205 197 201 198 183 215 178 240 215 170 157 209
242 245 244 129 140 139 140 143 140 144 163 163 172 140 141 176 181 199 101 116 170 184 136 218 219 208 219 248 194 203 218 186 217 197 229 256 269 183 174 324 168 187 217
253 254 183 135 141 135 136 139 140 159 166 146 142 143 225 177 159 126 128 135 96 63 222 194 224 211 215 231 224 207 218 203 228 220 206 234 184 56 282 189 168 215 206
240 228 115 131 134 135 137 143 153 167 135 179 133 185 185 43 62 116 94 116 108 254 235 205 198 198 197 239 238 227 216 208 218 233 227 228 189 188 210 176 168 145 73
221 115 127 138 137 139 143 149 158 137 158 158 133 148 119 103 142 85 51 170 145 219 172 205 177 186 198 202 220 199 237 200 272 246 224 233 236 176 102 105 154 118 94
125 125 135 134 144 144 150 155 149 156 162 157 161 152 135 185 121 90 16 110 160 138 205 174 170 206 188 185 196 189 191 217 234 268 227 271 270 123 99 79 109 113 100
120 130 136 142 142 148 156 146 156 157 167 162 143 155 141 141 129 127 94 146 118 164 162 121 180 165 191 210 173 160 187 110 67 325 283 253 5 52 127 139 204 151 144
138 144 140 147 143 149 148 153 155 160 163 152 163 157 130 119 140 134 142 136 147 149 115 130 134 135 182 162 138 160 146 143 128 321 17 343 20 34 95 218 188 149 130
149 144 145 143 144 148 150 152 160 164 160 152 139 126 139 145 144 148 115 126 135 120 131 136 132 169 149 118 136 137 135 134 175 105 11 47 77 144 173 118 122 110 119
149 146 146 150 149 155 150 162 158 161 158 171 143 133 156 121 129 157 134 156 188 137 170 175 169 165 94 92 127 168 181 153 191 184 111 159 284 111 100 103 98 106 112
148 150 149 154 153 156 158 162 165 158 163 176 127 130 116 121 131 138 162 193 179 171 172 130 105 78 98 68 50 93 102 140 208 90 150 147 172 123 117 106 96 101 113
151 151 153 154 160 155 164 157 171 160 165 163 129 126 112 148 150 133 190 197 160 145 123 110 83 89 76 80 79 65 82 210 101 83 83 72 60 78 110 108 112 118 123
160 150 161 156 160 158 158 160 166 157 158 134 134 133 126 147 150 157 146 257 135 157 115 99 88 88 103 54 50 76 48 95 94 93 96 92 81 64 110 125 125 122 127
160 157 162 157 159 158 160 161 157 150 163 128 141 141 149 136 147 141 140 126 74 73 107 109 113 203 84 54 43 11 79 94 115 107 100 103 89 77 101 107 108 125 134
162 161 163 159 153 158 160 160 149 151 159 149 142 143 142 137 156 150 138 120 100 99 102 120 123 98 98 67 37 15 87 102 98 108 114 100 100 98 96 92 91 82 76
158 156 159 151 149 156 149 159 150 155 166 169 142 153 137 140 129 134 125 121 129 133 138 146 116 106 107 57 30 352 96 99 100 107 109 113 114 109 111 113 112 108 110
142 152 152 147 149 156 149 162 156 166 169 165 150 158 148 135 151 121 128 126 123 130 130 111 117 115 128 46 20 359 91 87 81 87 109 97 103 108 106 114 116 106 97
148 152 151 145 149 157 154 163 159 172 173 159 160 139 141 143 143 136 131 141 123 125 108 83 89 106 114 50 16 1 90 102 98 85 86 98 114 118 116 125 123 119 127
145 147 148 151 152 154 157 174 162 178 173 157 148 143 154 136 136 121 127 135 139 127 126 119 120 114 126 91 18 18 115 124 112 107 107 108 112 123 117 125 135 138 140
184 149 151 150 154 158 164 180 163 183 171 156 158 131 132 133 132 133 141 129 132 134 130 132 121 131 126 116 56 36 89 142 121 117 119 108 109 121 124 126 121 122 132
293 157 156 151 159 164 171 181 162 185 171 156 147 133 148 127 140 145 146 149 158 139 145 151 147 135 130 124 107 79 48 32 124 113 99 115 116 118 110 131 134 147 142
260 197 158 156 164 169 173 182 165 186 171 153 147 143 165 141 149 163 155 164 177 177 154 153 143 149 143 145 142 139 115 91 95 108 118 123 115 105 118 132 149 160 159
221 265 165 161 165 172 176 182 172 185 165 153 152 154 171 154 154 170 192 181 49 178 158 155 157 151 152 155 154 161 142 136 137 132 140 145 124 127 149 163 182 187 182
263 254 194 164 166 174 178 185 176 182 161 159 160 166 172 176 168 149 136 43 66 91 72 74 152 159 142 148 161 168 152 154 158 160 163 160 148 154 169 181 201 215 174